Location: Carrigahorig
(53.0625°N, 8.1439°W)
Time: 03:37:20
(UTC+00:00)

Cosmos 2322 Rocket - Pass Details

Date: 15 May 2026
Orbit: 831 x 850 km, 71.0° (Epoch: 8 June)

Event Time Altitude Azimuth Distance (km) Brightness Sun altitude
Rises 22:15:08 0° 326° (NW) 3,407 7.5 -12.3°
Reaches altitude 10° 22:17:38 10° 322° (NW) 2,472 6.1 -12.5°
Maximum altitude 22:23:08 53° 247° (WSW) 1,032 2.7 -12.9°
Enters shadow 22:27:34 16° 175° (S) 2,087 3.7 -13.3°
